Tracking 32577 objects as of 14-Dec-2025
HD Live streaming from Space Station
objects crossing your sky now

STARLINK-30367

Track STARLINK-30367 now!
10-day predictions
STARLINK-30367 is classified as:


NORAD ID: 57791
Int'l Code: 2023-134W
Perigee: 566.0 km
Apogee: 566.7 km
Inclination: 43.0 °
Period: 95.8 minutes
Semi major axis: 6937 km
RCS: Unknown
Launch date: September 4, 2023
Source: United States (US)
Launch site: AIR FORCE EASTERN TEST RANGE (AFETR)
Your satellite tracking list
Your tracking list is empty




NASA's NSSDC Master Catalog

Two Line Element Set (TLE):
1 57791U 23134W   25348.19434607  .00008614  00000-0  65273-3 0  9993
2 57791  43.0073 301.7958 0000501 233.9736 126.1060 15.02489822126613
Source of the keplerian elements: AFSPC